| time (UTC) | temp F | wind direction | speed knots | gust knots | rain 1hr in | rain 24hr in | rain mn in | humidity % | barometer mb |
| 20260510230043 | 95 | 166 | 3.5 | 7.8 | 0.00 | 0.00 | 0.00 | 9 | 1014.9 |
| 20260510220041 | 96 | 155 | 4.3 | 9.6 | 0.00 | 0.00 | 0.00 | 7 | 1015.3 |
| 20260510210043 | 96 | 131 | 1.7 | 7.0 | 0.00 | 0.00 | 0.00 | 8 | 1015.9 |
| 20260510200038 | 95 | 175 | 1.7 | 5.2 | 0.00 | 0.00 | 0.00 | 8 | 1016.7 |
| 20260510190049 | 94 | 259 | 1.7 | 6.1 | 0.00 | 0.00 | 0.00 | 7 | 1017.4 |
| 20260510180045 | 92 | 198 | 2.6 | 7.0 | 0.00 | 0.00 | 0.00 | 9 | 1018.2 |
| 20260510170057 | 89 | 205 | 1.7 | 6.1 | 0.00 | 0.00 | 0.00 | 10 | 1018.4 |
| 20260510160051 | 83 | 344 | 0.9 | 3.5 | 0.00 | 0.00 | 0.00 | 16 | 1018.0 |
| 20260510150104 | 74 | 5 | 0.0 | 2.6 | 0.00 | 0.00 | 0.00 | 21 | 1017.8 |
| 20260510140054 | 63 | 75 | 1.7 | 3.5 | 0.00 | 0.00 | 0.00 | 36 | 1017.3 |
| 20260510130129 | 56 | 113 | 1.7 | 2.6 | 0.00 | 0.00 | 0.00 | 33 | 1016.3 |
| 20260510120119 | 58 | 113 | 0.0 | 5.2 | 0.00 | 0.00 | 0.00 | 29 | 1015.8 |
| 20260510110130 | 66 | 46 | 0.9 | 2.6 | 0.00 | 0.00 | 0.00 | 18 | 1015.1 |
| 20260510100120 | 68 | 28 | 3.5 | 5.2 | 0.00 | 0.00 | 0.00 | 18 | 1014.5 |
| 20260510090117 | 68 | 347 | 0.9 | 5.2 | 0.00 | 0.00 | 0.00 | 19 | 1014.6 |
| 20260510080119 | 70 | 74 | 2.6 | 6.1 | 0.00 | 0.00 | 0.00 | 16 | 1014.7 |
| 20260510070031 | 67 | 92 | 4.3 | 7.0 | 0.00 | 0.00 | 0.00 | 20 | 1014.6 |
| 20260510060037 | 69 | 87 | 3.5 | 7.0 | 0.00 | 0.00 | 0.00 | 20 | 1014.6 |
| 20260510050042 | 73 | 62 | 1.7 | 5.2 | 0.00 | 0.00 | 0.00 | 16 | 1014.4 |
| 20260510040047 | 67 | 84 | 2.6 | 4.3 | 0.00 | 0.00 | 0.00 | 27 | 1014.2 |
| 20260510030038 | 71 | 281 | 0.0 | 0.0 | 0.00 | 0.00 | 0.00 | 31 | 1013.6 |
| 20260510020046 | 81 | 283 | 0.0 | 0.0 | 0.00 | 0.00 | 0.00 | 22 | 1013.2 |
| 20260510010047 | 93 | 267 | 0.0 | 0.0 | 0.00 | 0.00 | 0.00 | 18 | 1013.2 |
| 20260510000059 | 93 | 76 | 0.9 | 7.8 | 0.00 | 0.00 | 0.00 | 7 | 1013.4 |